When you browse on this site, cookies collect data to enhance your experience and personalize the content and advertising you see.
Visit our Privacy Policy to learn more. By continuing to use the site, you agree to this use of cookies and data.
  • In Hungary
  • List of Countries
  • For 7 days
  • Water Temperature
  • Weather Map
  • News
  • Weather Widgets
  • user-avatar
    Login

    Hourly Weather Bychlew

    Today, 8 April, Wednesday

    Time Temperature Precipitation Wind Pressure Humidity
    00:00 +9°C° 0 mm 3 mps 757 mmHg 77%
    01:00 +9°C° 0 mm 3 mps 757 mmHg 83%
    02:00 +8°C° 0 mm 3 mps 757 mmHg 80%
    03:00 +7°C° 0 mm 2 mps 756 mmHg 77%
    04:00 +7°C° 0 mm 2 mps 756 mmHg 74%
    05:00 +7°C° 0 mm 2 mps 756 mmHg 71%
    06:00 +8°C° 0 mm 2 mps 756 mmHg 68%
    07:00 +9°C° 0 mm 2 mps 756 mmHg 64%
    08:00 +12°C° 0 mm 2 mps 756 mmHg 60%
    09:00 +13°C° 0 mm 2 mps 756 mmHg 56%
    10:00 +15°C° 0 mm 2 mps 756 mmHg 52%
    11:00 +16°C° 0 mm 2 mps 755 mmHg 51%
    12:00 +18°C° 0 mm 2 mps 755 mmHg 49%
    13:00 +20°C° 0 mm 1 mps 754 mmHg 47%
    14:00 +20°C° 0 mm 1 mps 754 mmHg 46%
    15:00 +20°C° 0 mm 1 mps 753 mmHg 44%
    16:00 +21°C° 0 mm 1 mps 752 mmHg 42%
    17:00 +19°C° 0 mm 1 mps 752 mmHg 47%
    18:00 +16°C° 0 mm 1 mps 752 mmHg 51%
    19:00 +15°C° 0 mm 2 mps 751 mmHg 56%
    20:00 +14°C° 0 mm 2 mps 751 mmHg 57%
    21:00 +13°C° 0 mm 2 mps 751 mmHg 58%
    22:00 +12°C° 0 mm 2 mps 751 mmHg 59%
    23:00 +12°C° 0 mm 2 mps 751 mmHg 55%

    Tomorrow, 9 April, Thursday

    Time Temperature Precipitation Wind Pressure Humidity
    00:00 +10°C° 0 mm 2 mps 750 mmHg 51%
    01:00 +9°C° 0 mm 2 mps 750 mmHg 47%
    02:00 +9°C° 0 mm 2 mps 750 mmHg 50%
    03:00 +8°C° 0 mm 3 mps 749 mmHg 53%
    04:00 +8°C° 0 mm 3 mps 749 mmHg 56%
    05:00 +9°C° 0 mm 3 mps 749 mmHg 55%
    06:00 +9°C° 0 mm 3 mps 749 mmHg 55%
    07:00 +10°C° 0 mm 3 mps 748 mmHg 55%
    08:00 +12°C° 0 mm 4 mps 748 mmHg 51%
    09:00 +14°C° 0 mm 4 mps 748 mmHg 47%
    10:00 +15°C° 0 mm 5 mps 748 mmHg 43%
    11:00 +16°C° 0 mm 5 mps 748 mmHg 42%
    12:00 +17°C° 0 mm 5 mps 747 mmHg 41%
    13:00 +19°C° 0 mm 6 mps 747 mmHg 40%
    14:00 +16°C° 0.1 mm 6 mps 747 mmHg 51%
    15:00 +15°C° 0.1 mm 6 mps 747 mmHg 62%
    16:00 +13°C° 0.1 mm 6 mps 747 mmHg 72%
    17:00 +13°C° 0.1 mm 6 mps 747 mmHg 71%
    18:00 +12°C° 0.1 mm 5 mps 748 mmHg 70%
    19:00 +11°C° 0.1 mm 4 mps 748 mmHg 69%
    20:00 +10°C° 0 mm 4 mps 748 mmHg 67%
    21:00 +8°C° 0 mm 4 mps 749 mmHg 64%
    22:00 +7°C° 0 mm 5 mps 750 mmHg 61%
    23:00 +6°C° 0 mm 4 mps 750 mmHg 63%

    Day after tomorrow, 10 April, Friday

    Time Temperature Precipitation Wind Pressure Humidity
    00:00 +5°C° 0 mm 4 mps 750 mmHg 65%
    01:00 +3°C° 0 mm 3 mps 750 mmHg 68%
    02:00 +3°C° 0 mm 3 mps 751 mmHg 70%
    03:00 +2°C° 0 mm 3 mps 751 mmHg 72%
    04:00 +3°C° 0 mm 2 mps 751 mmHg 74%
    05:00 +4°C° 0 mm 2 mps 751 mmHg 72%
    06:00 +4°C° 0 mm 2 mps 752 mmHg 69%
    07:00 +5°C° 0 mm 2 mps 752 mmHg 66%
    08:00 +5°C° 0 mm 3 mps 752 mmHg 60%
    09:00 +8°C° 0 mm 3 mps 752 mmHg 54%
    10:00 +9°C° 0 mm 3 mps 752 mmHg 48%
    11:00 +10°C° 0 mm 3 mps 752 mmHg 44%
    12:00 +11°C° 0 mm 3 mps 752 mmHg 41%
    13:00 +12°C° 0 mm 3 mps 752 mmHg 38%
    14:00 +12°C° 0 mm 3 mps 751 mmHg 38%
    15:00 +12°C° 0 mm 3 mps 751 mmHg 38%
    16:00 +12°C° 0 mm 3 mps 751 mmHg 38%
    17:00 +10°C° 0 mm 2 mps 751 mmHg 43%
    18:00 +9°C° 0 mm 2 mps 751 mmHg 47%
    19:00 +9°C° 0 mm 1 mps 751 mmHg 52%
    20:00 +8°C° 0 mm 1 mps 751 mmHg 54%
    21:00 +8°C° 0 mm 1 mps 751 mmHg 57%
    22:00 +7°C° 0 mm 1 mps 752 mmHg 59%
    23:00 +6°C° 0 mm 1 mps 752 mmHg 61%

    11 April, Saturday

    Time Temperature Precipitation Wind Pressure Humidity
    00:00 +6°C° 0 mm 1 mps 752 mmHg 62%
    01:00 +6°C° 0 mm 1 mps 752 mmHg 64%
    02:00 +5°C° 0 mm 1 mps 752 mmHg 65%
    03:00 +5°C° 0 mm 1 mps 752 mmHg 67%
    04:00 +5°C° 0 mm 1 mps 752 mmHg 68%
    05:00 +5°C° 0 mm 1 mps 752 mmHg 66%
    06:00 +6°C° 0 mm 1 mps 752 mmHg 64%
    07:00 +7°C° 0 mm 1 mps 752 mmHg 61%
    08:00 +8°C° 0 mm 2 mps 752 mmHg 56%
    09:00 +10°C° 0 mm 2 mps 752 mmHg 51%
    10:00 +12°C° 0 mm 2 mps 753 mmHg 46%
    11:00 +13°C° 0 mm 2 mps 752 mmHg 44%
    12:00 +14°C° 0 mm 2 mps 752 mmHg 41%
    13:00 +14°C° 0 mm 2 mps 752 mmHg 39%
    14:00 +14°C° 0 mm 2 mps 752 mmHg 38%
    15:00 +15°C° 0 mm 1 mps 751 mmHg 37%
    16:00 +15°C° 0 mm 1 mps 751 mmHg 36%
    17:00 +13°C° 0 mm 1 mps 751 mmHg 41%
    18:00 +12°C° 0 mm 1 mps 751 mmHg 45%
    19:00 +10°C° 0 mm 1 mps 751 mmHg 49%
    20:00 +9°C° 0 mm 2 mps 751 mmHg 51%
    21:00 +8°C° 0 mm 2 mps 751 mmHg 53%
    22:00 +7°C° 0 mm 3 mps 751 mmHg 55%
    23:00 +7°C° 0 mm 3 mps 750 mmHg 57%

    12 April, Sunday

    Time Temperature Precipitation Wind Pressure Humidity
    00:00 +7°C° 0 mm 3 mps 750 mmHg 58%
    01:00 +5°C° 0 mm 3 mps 750 mmHg 60%
    02:00 +5°C° 0 mm 3 mps 749 mmHg 60%
    03:00 +4°C° 0 mm 3 mps 749 mmHg 60%
    04:00 +4°C° 0 mm 3 mps 748 mmHg 60%
    05:00 +5°C° 0 mm 3 mps 748 mmHg 59%
    06:00 +7°C° 0 mm 3 mps 748 mmHg 58%
    07:00 +8°C° 0 mm 3 mps 748 mmHg 58%
    08:00 +10°C° 0 mm 3 mps 748 mmHg 53%
    09:00 +13°C° 0 mm 3 mps 747 mmHg 48%
    10:00 +16°C° 0 mm 3 mps 747 mmHg 43%
    11:00 +17°C° 0 mm 4 mps 746 mmHg 41%
    12:00 +18°C° 0 mm 4 mps 746 mmHg 39%
    13:00 +19°C° 0 mm 4 mps 745 mmHg 37%
    14:00 +19°C° 0 mm 4 mps 745 mmHg 38%
    15:00 +19°C° 0 mm 3 mps 744 mmHg 38%
    16:00 +19°C° 0 mm 3 mps 743 mmHg 39%
    17:00 +18°C° 0 mm 3 mps 743 mmHg 45%
    18:00 +16°C° 0 mm 3 mps 742 mmHg 50%
    19:00 +14°C° 0 mm 2 mps 742 mmHg 56%
    20:00 +13°C° 0 mm 3 mps 742 mmHg 59%
    21:00 +12°C° 0 mm 3 mps 742 mmHg 63%
    22:00 +12°C° 0 mm 4 mps 741 mmHg 66%
    23:00 +11°C° 0 mm 4 mps 741 mmHg 68%

    13 April, Monday

    Time Temperature Precipitation Wind Pressure Humidity
    00:00 +11°C° 0 mm 4 mps 741 mmHg 71%
    01:00 +11°C° 0 mm 4 mps 740 mmHg 73%
    02:00 +10°C° 0 mm 5 mps 740 mmHg 73%
    03:00 +10°C° 0 mm 5 mps 739 mmHg 73%
    04:00 +10°C° 0 mm 5 mps 739 mmHg 73%
    05:00 +10°C° 0 mm 5 mps 739 mmHg 71%
    06:00 +12°C° 0 mm 5 mps 739 mmHg 69%
    07:00 +11°C° 0 mm 6 mps 738 mmHg 68%
    08:00 +14°C° 0 mm 6 mps 738 mmHg 64%
    09:00 +15°C° 0 mm 6 mps 737 mmHg 60%
    10:00 +17°C° 0 mm 6 mps 737 mmHg 57%
    11:00 +17°C° 0 mm 6 mps 737 mmHg 55%
    12:00 +19°C° 0 mm 6 mps 736 mmHg 53%
    13:00 +19°C° 0 mm 6 mps 736 mmHg 51%
    14:00 +19°C° 0.2 mm 6 mps 735 mmHg 51%
    15:00 +18°C° 0.2 mm 7 mps 734 mmHg 52%
    16:00 +18°C° 0.2 mm 7 mps 734 mmHg 52%
    17:00 +17°C° 0.5 mm 7 mps 733 mmHg 58%
    18:00 +16°C° 0.5 mm 7 mps 733 mmHg 63%
    19:00 +14°C° 0.5 mm 7 mps 733 mmHg 69%
    20:00 +11°C° 0.3 mm 6 mps 733 mmHg 73%
    21:00 +9°C° 0.3 mm 6 mps 734 mmHg 77%
    22:00 +7°C° 0.3 mm 6 mps 734 mmHg 82%
    23:00 +7°C° 0 mm 6 mps 734 mmHg 81%
    Show more